FW4213 Weather Reports


Display with metric or nautical units.
time (UTC)temp
F
wind
direction
speed
MPH
gust
MPH
rain 1hr
in
rain 24hr
in
rain mn
in
humidity
%
barometer
mb
20260831183031 74 137 4.0 11.0 0.00 0.00 0.00 36 1015.0
20260831181532 72 132 3.0 9.0 0.00 0.00 0.00 42 1015.3
20260831180106 70 343 3.0 9.0 0.00 0.00 0.00 51 1015.4
20260831174648 68 298 2.0 6.0 0.00 0.00 0.00 54 1015.6
20260831173036 66 322 2.0 5.0 0.00 0.00 0.00 56 1015.8
20260831170031 64 310 1.0 4.0 0.00 0.00 0.00 60 1016.1
20260831164531 62 347 2.0 5.0 0.00 0.00 0.00 61 1016.4
20260831163030 61 336 3.0 6.0 0.00 0.00 0.00 64 1016.5
20260831161531 60 306 2.0 5.0 0.00 0.00 0.00 67 1016.7
20260831160034 60 304 0.0 4.0 0.00 0.00 0.00 69 1016.8
20260831154537 59 357 0.0 3.0 0.00 0.00 0.00 71 1016.9
20260831153034 57 106 0.0 0.0 0.00 0.00 0.00 76 1016.9
20260831151605 54 135 0.0 0.0 0.00 0.00 0.00 79 1016.9
20260831150031 52 135 0.0 4.0 0.00 0.00 0.00 82 1016.8
20260831144533 50 134 3.0 4.0 0.00 0.00 0.00 85 1016.6
20260831143033 49 137 0.0 3.0 0.00 0.00 0.00 85 1016.6
20260831140031 49 135 0.0 1.0 0.00 0.00 0.00 83 1016.5
20260831134537 50 135 0.0 0.0 0.00 0.00 0.00 81 1016.6
20260831133037 51 137 2.0 6.0 0.00 0.00 0.00 80 1016.6
20260831130035 49 149 3.0 6.0 0.00 0.00 0.00 81 1016.5
20260831124536 50 157 0.0 3.0 0.00 0.00 0.00 79 1016.5
20260831123148 51 157 0.0 2.0 0.00 0.00 0.00 79 1016.4
20260831121535 51 150 2.0 6.0 0.00 0.00 0.00 78 1016.4
20260831120029 52 155 1.0 5.0 0.00 0.00 0.00 77 1016.5
20260831114531 52 156 1.0 4.0 0.00 0.00 0.00 77 1016.4
20260831113029 53 146 1.0 5.0 0.00 0.00 0.00 74 1016.4
20260831111532 54 143 5.0 8.0 0.00 0.00 0.00 73 1016.4
20260831104606 54 148 5.0 8.0 0.00 0.00 0.00 72 1016.4
20260831103034 54 145 5.0 8.0 0.00 0.00 0.00 72 1016.4
20260831100030 55 135 1.0 6.0 0.00 0.00 0.00 69 1016.7
20260831094538 56 141 5.0 8.0 0.00 0.00 0.00 68 1016.8
20260831091533 56 140 5.0 7.0 0.00 0.00 0.00 67 1016.9
20260831090033 56 145 5.0 8.0 0.00 0.00 0.00 66 1016.9
20260831084535 57 145 6.0 8.0 0.00 0.00 0.00 66 1016.9
20260831083034 57 154 4.0 7.0 0.00 0.00 0.00 65 1017.0
20260831081532 57 145 6.0 9.0 0.00 0.00 0.00 64 1017.0
20260831080030 58 145 6.0 10.0 0.00 0.00 0.00 63 1017.1
20260831074533 58 143 6.0 10.0 0.00 0.00 0.00 62 1017.1
20260831073032 59 146 7.0 10.0 0.00 0.00 0.00 62 1017.2
20260831064537 60 143 6.0 10.0 0.00 0.00 0.00 62 1017.2
20260831063031 60 137 6.0 9.0 0.00 0.00 0.00 61 1017.3
20260831060037 60 133 3.0 7.0 0.00 0.00 0.00 61 1017.3
20260831054531 61 137 2.0 8.0 0.00 0.00 0.00 60 1017.4
20260831051535 62 133 4.0 8.0 0.00 0.00 0.00 58 1017.4
20260831044535 63 133 3.0 5.0 0.00 0.00 0.00 57 1017.4
20260831043034 65 103 1.0 4.0 0.00 0.00 0.00 55 1017.4
20260831041531 66 51 1.0 3.0 0.00 0.00 0.00 53 1017.4
20260831040032 67 360 0.0 2.0 0.00 0.00 0.00 52 1017.3
20260831033107 68 167 0.0 4.0 0.00 0.00 0.00 49 1017.0
20260831031532 69 132 1.0 4.0 0.00 0.00 0.00 47 1016.9
20260831030110 70 247 0.0 4.0 0.00 0.00 0.00 45 1016.7
20260831024536 71 246 2.0 9.0 0.00 0.00 0.00 43 1016.6
20260831023031 72 233 2.0 6.0 0.00 0.00 0.00 42 1016.7
20260831021608 73 246 3.0 8.0 0.00 0.00 0.00 40 1016.6
20260831020033 74 237 3.0 9.0 0.00 0.00 0.00 39 1016.6
20260831014534 74 231 3.0 7.0 0.00 0.00 0.00 37 1016.6
20260831013029 75 231 3.0 7.0 0.00 0.00 0.00 36 1016.7
20260831011530 76 240 2.0 6.0 0.00 0.00 0.00 35 1016.7
20260831004642 78 232 2.0 6.0 0.00 0.00 0.00 33 1016.8
20260831001608 78 235 2.0 5.0 0.00 0.00 0.00 33 1016.8
20260831000037 78 277 2.0 8.0 0.00 0.00 0.00 33 1016.9
20260830234606 78 266 3.0 8.0 0.00 0.00 0.00 31 1017.1
20260830233035 79 268 3.0 9.0 0.00 0.00 0.00 29 1017.3
20260830230031 78 286 2.0 8.0 0.00 0.00 0.00 32 1017.5
20260830223107 78 276 3.0 12.0 0.00 0.00 0.00 32 1018.0
20260830221529 78 264 3.0 13.0 0.00 0.00 0.00 32 1018.2
20260830220032 77 259 2.0 9.0 0.00 0.00 0.00 33 1018.5
20260830214649 75 287 3.0 9.0 0.00 0.00 0.00 34 1018.8
20260830213032 75 313 6.0 12.0 0.00 0.00 0.00 34 1018.9
20260830204532 74 281 3.0 9.0 0.00 0.00 0.00 37 1019.3
20260830203030 73 297 4.0 10.0 0.00 0.00 0.00 37 1019.6
20260830201536 73 296 4.0 11.0 0.00 0.00 0.00 38 1019.7
20260830200031 72 285 3.0 9.0 0.00 0.00 0.00 39 1019.9
20260830194529 71 279 3.0 13.0 0.00 0.00 0.00 39 1020.1
20260830193031 70 294 3.0 9.0 0.00 0.00 0.00 42 1020.2
20260830191532 70 288 4.0 11.0 0.00 0.00 0.00 42 1020.4
20260830190032 70 283 4.0 12.0 0.00 0.00 0.00 43 1020.6
20260830184534 69 270 2.0 10.0 0.00 0.00 0.00 46 1020.8